This is the latest recevied weather packets stored in our database for station/object KC4GS-13. If no packets are shown the sender has not sent any weather packets the latest 10 day(s).
| Time | Temp. | Humidity | Pressure | Rain* | Wind** | Luminosity | Snow |
|---|---|---|---|---|---|---|---|
| 1778185459 | 23.33° C | 86% | 1011.1 hPa | 0 mm | - | 207 W/m² | - |
| 1778185155 | 23.33° C | 86% | 1011.3 hPa | 0 mm | - | 133 W/m² | - |
| 1778184850 | 23.33° C | 85% | 1011.4 hPa | 0 mm | - | 82 W/m² | - |
| 1778184547 | 23.33° C | 86% | 1011.3 hPa | 0 mm | - | 117 W/m² | - |
| 1778184243 | 22.78° C | 86% | 1011.2 hPa | 0 mm | - | 109 W/m² | - |
| 1778183939 | 23.33° C | 86% | 1011.1 hPa | 0 mm | - | 108 W/m² | - |
| 1778183637 | 22.78° C | 87% | 1011.1 hPa | 0 mm | - | 101 W/m² | - |
| 1778183334 | 22.78° C | 90% | 1011.3 hPa | 0 mm | - | 99 W/m² | - |
| 1778183030 | 22.78° C | 91% | 1011.4 hPa | 0 mm | - | 116 W/m² | - |
| 1778182726 | 22.78° C | 94% | 1011.4 hPa | 0 mm | - | 148 W/m² | - |
| 1778182424 | 22.22° C | 94% | 1011.4 hPa | 0 mm | - | 162 W/m² | - |
| 1778182120 | 22.22° C | 97% | 1011.7 hPa | 0 mm | - | 285 W/m² | - |
| 1778181816 | 21.67° C | 97% | 1011.4 hPa | 0 mm | - | 252 W/m² | - |
| 1778181513 | 21.67° C | 98% | 1011.2 hPa | 0 mm | - | 208 W/m² | - |
| 1778181209 | 21.67° C | 98% | 1011.6 hPa | 0 mm | - | 137 W/m² | - |
| 1778180906 | 21.67° C | 98% | 1011.4 hPa | 0 mm | - | 343 W/m² | - |
| 1778180604 | 21.11° C | 99% | 1011.7 hPa | 0 mm | - | 282 W/m² | - |
| 1778180303 | 21.67° C | 99% | 1011.4 hPa | 0 mm | - | 239 W/m² | - |
| 1778180000 | 21.67° C | 99% | 1011.7 hPa | 0 mm | - | 134 W/m² | - |
| 1778179697 | 21.67° C | 99% | 1011.8 hPa | 0 mm | - | 125 W/m² | - |
| 1778179395 | 21.11° C | 99% | 1011.4 hPa | 0 mm | - | 212 W/m² | - |
| 1778179091 | 21.11° C | 99% | 1011.3 hPa | 0 mm | - | 948 W/m² | - |
| 1778178788 | 21.11° C | 99% | 1011.3 hPa | 0 mm | - | 226 W/m² | - |
| 1778178486 | 21.67° C | 99% | 1011.3 hPa | 0 mm | - | 317 W/m² | - |
| 1778178181 | 21.67° C | 99% | 1011.1 hPa | 0 mm | - | 489 W/m² | - |
* Rain latest hour (hover to see other rain measurements)
** Current wind speed in m/s (hover to see current wind gust speed)